Location: Eisten
(46.1966°N, 7.8966°E)
Time: 04:58:26
(UTC+00:00)

Daily predictions for brighter satellites

Satellite Brightness Start Highest point End
(mag) Time Altitude Azimuth Time Altitude Azimuth Time Altitude Azimuth
CENTAUR R/B 4.1 03:11:58 30° NNE 03:11:58 30° NNE 03:15:34 10° NE
ATLAS 3B R/B 4.4 03:37:14 10° SSE 03:42:32 27° ESE 03:48:00 10° ENE
Cosmos 2369 Rocket 3.6 03:51:56 28° NNE 03:51:56 28° NNE 03:54:29 10° NNE
Cosmos 1943 Rocket 4.3 03:59:15 15° N 03:59:15 15° N 04:00:18 10° NNE
CZ-2C R/B 3.8 03:52:13 10° SE 03:57:15 41° ENE 04:00:26 21° N
COSMO-SKYMED 1 4.0 03:55:35 10° SE 03:59:30 34° ENE 03:59:57 33° NE
Cosmos 2344 4.1 04:05:25 40° NNW 04:05:25 40° NNW 04:12:35 10° NE
Cosmos 2279 Rocket 3.9 04:06:26 31° N 04:09:35 81° E 04:15:47 10° S
Cosmos 2142 Rocket 4.4 04:08:18 31° N 04:11:36 88° E 04:18:01 10° S
Envisat 3.9 04:07:44 10° NNE 04:12:40 48° E 04:17:33 10° S
USA 238 DEB 4.4 04:17:53 35° NNW 04:17:53 35° NNW 04:23:26 10° NNE
USA 238 4.4 04:17:58 35° NNW 04:17:58 35° NNW 04:23:32 10° NNE
SJ 16-02 2.7 04:13:55 10° S 04:17:59 39° ESE 04:22:03 10° NE
USA 215 3.8 04:12:10 10° E 04:18:23 49° NNE 04:20:33 37° NNW
Meteor 1-10 Rocket 4.2 04:17:47 33° N 04:20:20 76° ENE 04:25:53 10° SSE
Cosmos 2227 Rocket 4.5 04:17:28 10° N 04:21:14 18° NE 04:24:59 10° E
Cosmos 1515 Rocket 4.1 04:22:56 43° NNE 04:24:00 56° ENE 04:28:15 10° SSE
Lacrosse 4 Rocket 4.3 04:24:10 10° NNE 04:25:16 11° NNE 04:26:22 10° NE
SL-4 R/B 4.1 04:24:19 15° SSE 04:25:29 18° SE 04:27:59 10° E
Meteor 2-8 Rocket 4.3 04:25:11 15° N 04:30:25 87° W 04:36:31 10° S
ATLAS 5 CENTAUR R/B 1.3 04:41:25 73° S 04:41:44 80° SE 04:46:02 10° NE
SKYMED 2 3.4 04:43:06 10° S 04:47:27 78° WSW 04:48:34 49° NNW
COSMOS 2487 3.0 04:47:50 47° NE 04:48:16 52° ENE 04:51:32 10° SE
Cosmos 1354 Rocket 4.1 04:53:50 40° WSW 04:55:12 50° WNW 05:00:23 10° NNE
H-2A R/B 3.8 04:51:26 10° SE 04:55:13 31° ENE 04:59:07 10° N
CZ-4B R/B 4.0 04:55:07 10° N 04:59:37 79° WNW 05:04:03 10° SSW
CENTAUR R/B 3.8 04:59:09 23° NW 05:00:43 25° NNW 05:06:50 10° NE
Cosmos 1515 4.3 04:58:47 13° N 05:02:06 57° ENE 05:05:50 10° SSE
DELTA 2 R/B (1) 4.4 04:59:49 26° WSW 05:02:12 40° S 05:07:21 10° ESE
CZ-4C R/B 2.5 05:03:09 10° SSE 05:06:15 89° WSW 05:06:53 54° NNW
CZ-3 R/B 4.4 05:03:17 10° SW 05:10:10 16° S 05:14:13 10° SSE
FALCON 9 DEB 3.6 05:14:23 34° N 05:14:40 35° NNE 05:17:20 10° E
BREEZE-M DEB (TANK) 4.4 05:06:52 23° WNW 05:14:42 63° SW 05:18:50 10° SE
FALCON 9 DEB 3.7 05:16:00 31° N 05:16:22 33° NNE 05:19:00 10° E
FALCON 9 DEB 4.0 05:17:27 28° N 05:17:52 29° NNE 05:20:28 10° E
Cosmos 1538 Rocket 3.9 05:16:45 16° NNW 05:20:57 72° WSW 05:26:06 10° SSE
Alouette 2 Rocket 3.0 05:20:03 17° NNW 05:22:43 76° WSW 05:26:26 10° S
Meteor 1-27 Rocket 3.8 05:17:27 10° NNW 05:22:59 54° W 05:28:36 10° S
Cosmos 2026 Rocket 4.3 05:18:09 10° S 05:24:25 70° E 05:30:38 10° NNE
SJ-7 4.4 05:21:29 10° NNE 05:25:41 87° WNW 05:29:47 10° SSW
ADEOS 3.5 05:21:58 10° NNE 05:27:12 77° WNW 05:32:24 10° SSW
Cosmos 2195 Rocket 4.5 05:23:06 10° S 05:29:12 88° E 05:35:21 10° N
Cosmos 2297 Rocket 2.7 05:24:11 10° NNW 05:29:48 61° ENE 05:35:24 10° SE
Cosmos 1607 3.9 05:26:35 16° NW 05:31:42 78° WSW 05:37:50 10° SSE
ATLAS 3B R/B 2.6 05:26:05 10° SW 05:32:37 69° NW 05:39:30 10° NE
Landsat 5 4.2 05:29:31 10° SSW 05:33:38 35° W 05:36:39 16° NW
Cosmos 2369 Rocket 3.7 05:33:45 16° NW 05:33:55 16° NW 05:37:22 10° N
FALCON 9 DEB 4.4 05:32:32 21° NNW 05:33:59 30° NNE 05:37:02 10° ENE
Cosmos 1340 Rocket 3.1 05:31:27 10° SSW 05:35:15 43° WNW 05:39:06 10° N
COSMO-SKYMED 1 3.6 05:32:06 10° SSW 05:35:42 25° W 05:37:10 21° WNW
Cosmos 1777 Rocket 4.4 05:31:42 10° SW 05:36:36 40° WNW 05:41:33 10° N
CZ-4B R/B 2.9 05:34:34 10° SE 05:37:34 35° ENE 05:40:33 10° N
CZ-2C R/B 3.4 05:32:54 10° SSW 05:37:39 30° W 05:41:55 12° NW
Cosmos 1680 Rocket 4.1 05:35:06 10° NNW 05:40:21 59° ENE 05:45:32 10° SE
Cosmos 158 Rocket 4.2 05:36:53 13° NW 05:41:19 49° WSW 05:46:23 10° S
CZ-4B R/B 2.5 05:40:03 10° N 05:43:38 75° WNW 05:47:15 10° SSW
Meteor 1-25 Rocket 4.1 05:40:12 10° SSW 05:45:46 70° WNW 05:51:21 10° N
FALCON 9 DEB 3.6 05:44:13 20° NW 05:45:47 38° NNE 05:48:30 10° E
Cosmos 2263 Rocket 4.4 05:42:50 10° N 05:46:30 17° NE 05:50:12 10° E
H-2A R/B 3.7 05:42:30 10° NNE 05:47:01 35° E 05:51:32 10° SSE
SMAP 3.5 05:42:45 10° NNE 05:47:24 67° ESE 05:52:02 10° S
Lacrosse 5 2.9 05:44:38 10° SSW 05:49:31 49° SE 05:54:26 10° ENE
Meteor 1-31 Rocket 3.9 05:46:38 10° NNW 05:49:44 23° WNW 05:52:50 10° WSW
USA 32 4.2 05:46:08 10° NNW 05:51:13 52° W 05:56:17 10° SSW
Envisat 3.9 05:47:19 10° N 05:51:23 25° WNW 05:55:28 10° WSW
Cosmos 1898 Rocket 4.2 05:46:27 10° S 05:51:40 60° ESE 05:56:54 10° NNE
Cosmos 1743 Rocket 4.2 05:50:10 10° SW 05:54:06 32° WNW 05:58:03 10° N
Cosmos 923 Rocket 4.0 05:50:37 10° NNW 05:55:59 80° WSW 06:01:19 10° SSE
SJ 16-02 2.4 05:53:09 10° WSW 05:56:41 24° WNW 06:00:14 10° N
CZ-2C R/B 3.0 05:52:38 10° N 05:57:29 57° WNW 06:02:33 10° SSW
Cosmos 1656 3.7 05:54:08 10° SSW 05:59:33 85° ESE 06:05:02 10° NNE
CZ-2D R/B 4.1 05:56:32 10° NNE 06:00:17 54° E 06:04:00 10° S
USA 215 3.3 05:54:43 10° SE 06:01:14 72° SW 06:07:47 10° NW
SL-4 R/B 1.6 06:01:00 10° WSW 06:04:32 84° NNW 06:08:20 10° ENE
Lacrosse 4 Rocket 2.3 06:00:38 10° NNW 06:05:00 50° NE 06:09:22 10° SE
Cosmos 1666 Rocket 3.6 06:00:38 10° S 06:05:07 89° W 06:09:38 10° N
NOAA 6 4.1 06:00:18 10° NNE 06:05:27 87° ESE 06:10:35 10° SSW
EO 1 Delta rocket 4.2 05:59:33 10° N 06:05:39 83° WNW 06:10:36 10° SSW
Cosmos 2227 Rocket 2.3 06:00:31 10° NNW 06:06:13 82° ENE 06:11:52 10° SSE
Cosmos 1939 Rocket 2.8 06:04:07 10° N 06:07:57 55° WNW 06:11:43 10° SSW
Cosmos 2228 Rocket 3.9 06:07:09 10° NNW 06:11:08 31° W 06:15:08 10° SSW
Okean 1 3.8 06:08:47 10° NNW 06:12:29 38° W 06:16:09 10° SSW
Meteor 2-4 Rocket 3.8 06:08:27 10° NNW 06:14:24 85° W 06:20:12 10° S
FengYun 1-2 T 4.2 06:10:12 10° N 06:15:38 64° WNW 06:21:04 10° SSW
Sich 1 3.6 06:15:25 10° SW 06:19:19 35° WNW 06:23:15 10° N
Meteor 1-18 Rocket 4.4 06:15:23 10° NNW 06:21:04 55° W 06:26:36 10° S
Cosmos 990 Rocket 4.1 06:18:23 10° SW 06:23:32 56° WNW 06:28:42 10° NNE
BREEZE M DEB (TANK) 1.6 06:21:21 10° WNW 06:24:02 73° SSW 06:26:04 10° ESE
Cosmos 2112 Rocket 4.1 06:18:46 10° NNW 06:24:05 72° WSW 06:29:19 10° SSE
Cosmos 1937 Rocket 3.7 06:19:03 10° SSW 06:24:17 83° ESE 06:29:37 10° NNE
CZ-4B DEB 4.2 06:21:18 10° NNE 06:26:47 87° WNW 06:32:14 10° SSW
